#datetime,building,power
2022-10-12T00:00:00,sdl,2.15
2022-10-12T00:01:00,sdl,2.39
2022-10-12T00:02:00,sdl,2.40
2022-10-12T00:03:00,sdl,3.56
2022-10-12T00:04:00,sdl,3.72
2022-10-12T00:05:00,sdl,4.52
2022-10-12T00:06:00,sdl,4.98
2022-10-12T00:07:00,sdl,4.98
2022-10-12T00:08:00,sdl,4.60
2022-10-12T00:09:00,sdl,4.70
2022-10-12T00:10:00,sdl,4.67
2022-10-12T00:11:00,sdl,4.49
2022-10-12T00:12:00,sdl,4.57
2022-10-12T00:13:00,sdl,4.56
2022-10-12T00:14:00,sdl,4.48
2022-10-12T00:15:00,sdl,4.72
2022-10-12T00:16:00,sdl,4.50
2022-10-12T00:17:00,sdl,4.53
2022-10-12T00:18:00,sdl,4.62
2022-10-12T00:19:00,sdl,4.54
2022-10-12T00:20:00,sdl,6.07
2022-10-12T00:21:00,sdl,3.75
2022-10-12T00:22:00,sdl,4.46
2022-10-12T00:23:00,sdl,3.59
2022-10-12T00:24:00,sdl,3.63
2022-10-12T00:25:00,sdl,3.62
2022-10-12T00:26:00,sdl,3.70
2022-10-12T00:27:00,sdl,3.76
2022-10-12T00:28:00,sdl,2.48
2022-10-12T00:29:00,sdl,2.32
2022-10-12T00:30:00,sdl,2.34
2022-10-12T00:31:00,sdl,2.28
2022-10-12T00:32:00,sdl,2.20
2022-10-12T00:33:00,sdl,2.23
2022-10-12T00:34:00,sdl,2.14
2022-10-12T00:35:00,sdl,2.35
2022-10-12T00:36:00,sdl,4.04
2022-10-12T00:37:00,sdl,3.50
2022-10-12T00:38:00,sdl,3.45
2022-10-12T00:39:00,sdl,3.50
2022-10-12T00:40:00,sdl,3.25
2022-10-12T00:41:00,sdl,3.34
2022-10-12T00:42:00,sdl,6.09
2022-10-12T00:43:00,sdl,5.12
2022-10-12T00:44:00,sdl,4.69
2022-10-12T00:45:00,sdl,5.32
2022-10-12T00:46:00,sdl,4.91
2022-10-12T00:47:00,sdl,4.81
2022-10-12T00:48:00,sdl,4.83
2022-10-12T00:49:00,sdl,4.96
2022-10-12T00:50:00,sdl,4.94
2022-10-12T00:51:00,sdl,6.11
2022-10-12T00:52:00,sdl,6.24
2022-10-12T00:53:00,sdl,7.05
2022-10-12T00:54:00,sdl,7.11
2022-10-12T00:55:00,sdl,7.12
2022-10-12T00:56:00,sdl,7.15
2022-10-12T00:57:00,sdl,6.95
2022-10-12T00:58:00,sdl,6.94
2022-10-12T00:59:00,sdl,5.18
2022-10-12T01:00:00,sdl,2.75
2022-10-12T01:01:00,sdl,2.51
2022-10-12T01:02:00,sdl,2.20
2022-10-12T01:03:00,sdl,2.20
2022-10-12T01:04:00,sdl,2.23
2022-10-12T01:05:00,sdl,2.17
2022-10-12T01:06:00,sdl,2.06
2022-10-12T01:07:00,sdl,2.06
2022-10-12T01:08:00,sdl,3.30
2022-10-12T01:09:00,sdl,3.11
2022-10-12T01:10:00,sdl,3.17
2022-10-12T01:11:00,sdl,3.30
2022-10-12T01:12:00,sdl,3.80
2022-10-12T01:13:00,sdl,3.86
2022-10-12T01:14:00,sdl,3.71
2022-10-12T01:15:00,sdl,3.39
2022-10-12T01:16:00,sdl,2.28
2022-10-12T01:17:00,sdl,2.60
2022-10-12T01:18:00,sdl,2.48
2022-10-12T01:19:00,sdl,2.46
2022-10-12T01:20:00,sdl,2.15
2022-10-12T01:21:00,sdl,4.66
2022-10-12T01:22:00,sdl,4.71
2022-10-12T01:23:00,sdl,4.64
2022-10-12T01:24:00,sdl,5.77
2022-10-12T01:25:00,sdl,5.73
2022-10-12T01:26:00,sdl,5.69
2022-10-12T01:27:00,sdl,5.71
2022-10-12T01:28:00,sdl,5.81
2022-10-12T01:29:00,sdl,6.48
2022-10-12T01:30:00,sdl,6.78
2022-10-12T01:31:00,sdl,4.59
2022-10-12T01:32:00,sdl,2.40
2022-10-12T01:33:00,sdl,2.52
2022-10-12T01:34:00,sdl,2.35
2022-10-12T01:35:00,sdl,2.44
2022-10-12T01:36:00,sdl,2.50
2022-10-12T01:37:00,sdl,2.43
2022-10-12T01:38:00,sdl,2.43
2022-10-12T01:39:00,sdl,3.66
2022-10-12T01:40:00,sdl,3.60
2022-10-12T01:41:00,sdl,4.33
2022-10-12T01:42:00,sdl,4.47
2022-10-12T01:43:00,sdl,4.62
2022-10-12T01:44:00,sdl,4.70
2022-10-12T01:45:00,sdl,4.70
2022-10-12T01:46:00,sdl,4.39
2022-10-12T01:47:00,sdl,2.38
2022-10-12T01:48:00,sdl,2.43
2022-10-12T01:49:00,sdl,2.45
2022-10-12T01:50:00,sdl,2.63
2022-10-12T01:51:00,sdl,2.61
2022-10-12T01:52:00,sdl,2.55
2022-10-12T01:53:00,sdl,2.57
2022-10-12T01:54:00,sdl,2.54
2022-10-12T01:55:00,sdl,3.76
2022-10-12T01:56:00,sdl,3.62
2022-10-12T01:57:00,sdl,3.60
2022-10-12T01:58:00,sdl,3.62
2022-10-12T01:59:00,sdl,6.23
2022-10-12T02:00:00,sdl,5.38
2022-10-12T02:01:00,sdl,7.12
2022-10-12T02:02:00,sdl,7.04
2022-10-12T02:03:00,sdl,5.69
2022-10-12T02:04:00,sdl,5.61
2022-10-12T02:05:00,sdl,5.63
2022-10-12T02:06:00,sdl,5.62
2022-10-12T02:07:00,sdl,5.59
2022-10-12T02:08:00,sdl,5.73
2022-10-12T02:09:00,sdl,5.76
2022-10-12T02:10:00,sdl,5.39
2022-10-12T02:11:00,sdl,6.73
2022-10-12T02:12:00,sdl,6.29
2022-10-12T02:13:00,sdl,6.78
2022-10-12T02:14:00,sdl,6.81
2022-10-12T02:15:00,sdl,6.48
2022-10-12T02:16:00,sdl,4.54
2022-10-12T02:17:00,sdl,4.20
2022-10-12T02:18:00,sdl,3.09
2022-10-12T02:19:00,sdl,2.94
2022-10-12T02:20:00,sdl,2.89
2022-10-12T02:21:00,sdl,2.87
2022-10-12T02:22:00,sdl,3.02
2022-10-12T02:23:00,sdl,3.03
2022-10-12T02:24:00,sdl,3.13
2022-10-12T02:25:00,sdl,3.19
2022-10-12T02:26:00,sdl,4.83
2022-10-12T02:27:00,sdl,4.74
2022-10-12T02:28:00,sdl,6.15
2022-10-12T02:29:00,sdl,5.33
2022-10-12T02:30:00,sdl,5.36
2022-10-12T02:31:00,sdl,5.29
2022-10-12T02:32:00,sdl,5.33
2022-10-12T02:33:00,sdl,3.07
2022-10-12T02:34:00,sdl,3.08
2022-10-12T02:35:00,sdl,3.08
2022-10-12T02:36:00,sdl,3.21
2022-10-12T02:37:00,sdl,3.29
2022-10-12T02:38:00,sdl,3.24
2022-10-12T02:39:00,sdl,3.20
2022-10-12T02:40:00,sdl,3.19
2022-10-12T02:41:00,sdl,4.75
2022-10-12T02:42:00,sdl,7.80
2022-10-12T02:43:00,sdl,7.93
2022-10-12T02:44:00,sdl,6.69
2022-10-12T02:45:00,sdl,6.71
2022-10-12T02:46:00,sdl,6.69
2022-10-12T02:47:00,sdl,6.68
2022-10-12T02:48:00,sdl,5.42
2022-10-12T02:49:00,sdl,5.46
2022-10-12T02:50:00,sdl,5.25
2022-10-12T02:51:00,sdl,5.19
2022-10-12T02:52:00,sdl,2.91
2022-10-12T02:53:00,sdl,2.86
2022-10-12T02:54:00,sdl,2.92
2022-10-12T02:55:00,sdl,3.03
2022-10-12T02:56:00,sdl,3.00
2022-10-12T02:57:00,sdl,4.53
2022-10-12T02:58:00,sdl,3.95
2022-10-12T02:59:00,sdl,4.11
2022-10-12T03:00:00,sdl,4.50
2022-10-12T03:01:00,sdl,4.22
2022-10-12T03:02:00,sdl,4.22
2022-10-12T03:03:00,sdl,4.58
2022-10-12T03:04:00,sdl,3.42
2022-10-12T03:05:00,sdl,3.59
2022-10-12T03:06:00,sdl,3.54
2022-10-12T03:07:00,sdl,3.49
2022-10-12T03:08:00,sdl,3.51
2022-10-12T03:09:00,sdl,3.50
2022-10-12T03:10:00,sdl,3.53
2022-10-12T03:11:00,sdl,4.00
2022-10-12T03:12:00,sdl,3.57
2022-10-12T03:13:00,sdl,4.92
2022-10-12T03:14:00,sdl,5.12
2022-10-12T03:15:00,sdl,5.08
2022-10-12T03:16:00,sdl,7.19
2022-10-12T03:17:00,sdl,8.08
2022-10-12T03:18:00,sdl,8.11
2022-10-12T03:19:00,sdl,8.24
2022-10-12T03:20:00,sdl,8.11
2022-10-12T03:21:00,sdl,5.89
2022-10-12T03:22:00,sdl,5.93
2022-10-12T03:23:00,sdl,5.93
2022-10-12T03:24:00,sdl,5.95
2022-10-12T03:25:00,sdl,5.79
2022-10-12T03:26:00,sdl,6.21
2022-10-12T03:27:00,sdl,5.77
2022-10-12T03:28:00,sdl,5.66
2022-10-12T03:29:00,sdl,5.65
2022-10-12T03:30:00,sdl,6.91
2022-10-12T03:31:00,sdl,7.02
2022-10-12T03:32:00,sdl,5.97
2022-10-12T03:33:00,sdl,5.98
2022-10-12T03:34:00,sdl,4.81
2022-10-12T03:35:00,sdl,4.90
2022-10-12T03:36:00,sdl,4.92
2022-10-12T03:37:00,sdl,4.06
2022-10-12T03:38:00,sdl,3.68
2022-10-12T03:39:00,sdl,3.71
2022-10-12T03:40:00,sdl,3.73
2022-10-12T03:41:00,sdl,3.81
2022-10-12T03:42:00,sdl,3.74
2022-10-12T03:43:00,sdl,3.68
2022-10-12T03:44:00,sdl,3.65
2022-10-12T03:45:00,sdl,3.56
2022-10-12T03:46:00,sdl,4.75
2022-10-12T03:47:00,sdl,4.98
2022-10-12T03:48:00,sdl,5.04
2022-10-12T03:49:00,sdl,4.33
2022-10-12T03:50:00,sdl,4.41
2022-10-12T03:51:00,sdl,4.43
2022-10-12T03:52:00,sdl,3.66
2022-10-12T03:53:00,sdl,3.31
2022-10-12T03:54:00,sdl,3.31
2022-10-12T03:55:00,sdl,5.58
2022-10-12T03:56:00,sdl,5.71
2022-10-12T03:57:00,sdl,5.72
2022-10-12T03:58:00,sdl,5.70
2022-10-12T03:59:00,sdl,5.81
2022-10-12T04:00:00,sdl,6.07
2022-10-12T04:01:00,sdl,5.62
2022-10-12T04:02:00,sdl,6.99
2022-10-12T04:03:00,sdl,6.58
2022-10-12T04:04:00,sdl,4.49
2022-10-12T04:05:00,sdl,5.27
2022-10-12T04:06:00,sdl,4.88
2022-10-12T04:07:00,sdl,5.31
2022-10-12T04:08:00,sdl,4.79
2022-10-12T04:09:00,sdl,3.23
2022-10-12T04:10:00,sdl,3.30
2022-10-12T04:11:00,sdl,3.34
2022-10-12T04:12:00,sdl,3.38
2022-10-12T04:13:00,sdl,3.34
2022-10-12T04:14:00,sdl,3.45
2022-10-12T04:15:00,sdl,3.43
2022-10-12T04:16:00,sdl,3.48
2022-10-12T04:17:00,sdl,4.68
2022-10-12T04:18:00,sdl,4.75
2022-10-12T04:19:00,sdl,5.49
2022-10-12T04:20:00,sdl,5.47
2022-10-12T04:21:00,sdl,5.52
2022-10-12T04:22:00,sdl,4.55
2022-10-12T04:23:00,sdl,4.55
2022-10-12T04:24:00,sdl,3.29
2022-10-12T04:25:00,sdl,3.31
2022-10-12T04:26:00,sdl,3.27
2022-10-12T04:27:00,sdl,3.56
2022-10-12T04:28:00,sdl,3.67
2022-10-12T04:29:00,sdl,3.39
2022-10-12T04:30:00,sdl,3.29
2022-10-12T04:31:00,sdl,3.25
2022-10-12T04:32:00,sdl,3.27
2022-10-12T04:33:00,sdl,3.23
2022-10-12T04:34:00,sdl,7.03
2022-10-12T04:35:00,sdl,6.99
2022-10-12T04:36:00,sdl,7.54
2022-10-12T04:37:00,sdl,6.66
2022-10-12T04:38:00,sdl,6.75
2022-10-12T04:39:00,sdl,6.62
2022-10-12T04:40:00,sdl,5.49
2022-10-12T04:41:00,sdl,6.14
2022-10-12T04:42:00,sdl,6.19
2022-10-12T04:43:00,sdl,6.23
2022-10-12T04:44:00,sdl,6.69
2022-10-12T04:45:00,sdl,6.70
2022-10-12T04:46:00,sdl,6.76
2022-10-12T04:47:00,sdl,6.85
2022-10-12T04:48:00,sdl,5.93
2022-10-12T04:49:00,sdl,5.90
2022-10-12T04:50:00,sdl,7.68
2022-10-12T04:51:00,sdl,4.73
2022-10-12T04:52:00,sdl,4.69
2022-10-12T04:53:00,sdl,4.80
2022-10-12T04:54:00,sdl,4.72
2022-10-12T04:55:00,sdl,4.91
2022-10-12T04:56:00,sdl,5.31
2022-10-12T04:57:00,sdl,4.07
2022-10-12T04:58:00,sdl,3.98
2022-10-12T04:59:00,sdl,3.57
2022-10-12T05:00:00,sdl,3.61
2022-10-12T05:01:00,sdl,3.57
2022-10-12T05:02:00,sdl,3.62
2022-10-12T05:03:00,sdl,3.65
2022-10-12T05:04:00,sdl,3.77
2022-10-12T05:05:00,sdl,3.79
2022-10-12T05:06:00,sdl,5.07
2022-10-12T05:07:00,sdl,4.79
2022-10-12T05:08:00,sdl,5.02
2022-10-12T05:09:00,sdl,5.79
2022-10-12T05:10:00,sdl,5.68
2022-10-12T05:11:00,sdl,5.67
2022-10-12T05:12:00,sdl,4.06
2022-10-12T05:13:00,sdl,3.52
2022-10-12T05:14:00,sdl,3.58
2022-10-12T05:15:00,sdl,5.74
2022-10-12T05:16:00,sdl,5.51
2022-10-12T05:17:00,sdl,5.56
2022-10-12T05:18:00,sdl,5.85
2022-10-12T05:19:00,sdl,6.27
2022-10-12T05:20:00,sdl,5.65
2022-10-12T05:21:00,sdl,5.67
2022-10-12T05:22:00,sdl,6.91
2022-10-12T05:23:00,sdl,7.04
2022-10-12T05:24:00,sdl,7.91
2022-10-12T05:25:00,sdl,5.69
2022-10-12T05:26:00,sdl,5.17
2022-10-12T05:27:00,sdl,4.43
2022-10-12T05:28:00,sdl,4.47
2022-10-12T05:29:00,sdl,3.31
2022-10-12T05:30:00,sdl,3.02
2022-10-12T05:31:00,sdl,2.98
2022-10-12T05:32:00,sdl,3.15
2022-10-12T05:33:00,sdl,3.48
2022-10-12T05:34:00,sdl,3.50
2022-10-12T05:35:00,sdl,3.43
2022-10-12T05:36:00,sdl,3.09
2022-10-12T05:37:00,sdl,3.15
2022-10-12T05:38:00,sdl,4.26
2022-10-12T05:39:00,sdl,4.34
2022-10-12T05:40:00,sdl,5.14
2022-10-12T05:41:00,sdl,5.21
2022-10-12T05:42:00,sdl,4.35
2022-10-12T05:43:00,sdl,4.72
2022-10-12T05:44:00,sdl,3.32
2022-10-12T05:45:00,sdl,3.04
2022-10-12T05:46:00,sdl,3.31
2022-10-12T05:47:00,sdl,2.99
2022-10-12T05:48:00,sdl,3.05
2022-10-12T05:49:00,sdl,3.01
2022-10-12T05:50:00,sdl,3.12
2022-10-12T05:51:00,sdl,5.77
2022-10-12T05:52:00,sdl,5.33
2022-10-12T05:53:00,sdl,5.09
2022-10-12T05:54:00,sdl,6.22
2022-10-12T05:55:00,sdl,6.15
2022-10-12T05:56:00,sdl,6.15
2022-10-12T05:57:00,sdl,6.12
2022-10-12T05:58:00,sdl,6.14
2022-10-12T05:59:00,sdl,6.25
2022-10-12T06:00:00,sdl,5.26
2022-10-12T06:01:00,sdl,5.31
2022-10-12T06:02:00,sdl,5.22
2022-10-12T06:03:00,sdl,5.18
2022-10-12T06:04:00,sdl,5.14
2022-10-12T06:05:00,sdl,5.52
2022-10-12T06:06:00,sdl,5.51
2022-10-12T06:07:00,sdl,5.14
2022-10-12T06:08:00,sdl,2.99
2022-10-12T06:09:00,sdl,3.00
2022-10-12T06:10:00,sdl,4.49
2022-10-12T06:11:00,sdl,4.14
2022-10-12T06:12:00,sdl,4.19
2022-10-12T06:13:00,sdl,4.59
2022-10-12T06:14:00,sdl,5.31
2022-10-12T06:15:00,sdl,5.28
2022-10-12T06:16:00,sdl,4.10
2022-10-12T06:17:00,sdl,3.19
2022-10-12T06:18:00,sdl,3.19
2022-10-12T06:19:00,sdl,3.55
2022-10-12T06:20:00,sdl,3.55
2022-10-12T06:21:00,sdl,3.55
2022-10-12T06:22:00,sdl,3.46
2022-10-12T06:23:00,sdl,3.48
2022-10-12T06:24:00,sdl,3.47
2022-10-12T06:25:00,sdl,4.00
2022-10-12T06:26:00,sdl,4.87
2022-10-12T06:27:00,sdl,5.27
2022-10-12T06:28:00,sdl,5.85
2022-10-12T06:29:00,sdl,5.68
2022-10-12T06:30:00,sdl,5.69
2022-10-12T06:31:00,sdl,5.59
2022-10-12T06:32:00,sdl,3.47
2022-10-12T06:33:00,sdl,3.29
2022-10-12T06:34:00,sdl,3.26
2022-10-12T06:35:00,sdl,3.33
2022-10-12T06:36:00,sdl,3.31
2022-10-12T06:37:00,sdl,3.38
2022-10-12T06:38:00,sdl,3.86
2022-10-12T06:39:00,sdl,3.89
2022-10-12T06:40:00,sdl,3.43
2022-10-12T06:41:00,sdl,4.98
2022-10-12T06:42:00,sdl,5.05
2022-10-12T06:43:00,sdl,5.50
2022-10-12T06:44:00,sdl,5.51
2022-10-12T06:45:00,sdl,4.47
2022-10-12T06:46:00,sdl,4.58
2022-10-12T06:47:00,sdl,5.72
2022-10-12T06:48:00,sdl,5.72
2022-10-12T06:49:00,sdl,5.63
2022-10-12T06:50:00,sdl,5.56
2022-10-12T06:51:00,sdl,5.96
2022-10-12T06:52:00,sdl,5.61
2022-10-12T06:53:00,sdl,5.55
2022-10-12T06:54:00,sdl,5.43
2022-10-12T06:55:00,sdl,5.43
2022-10-12T06:56:00,sdl,5.79
2022-10-12T06:57:00,sdl,7.01
2022-10-12T06:58:00,sdl,4.06
2022-10-12T06:59:00,sdl,4.02
2022-10-12T07:00:00,sdl,4.16
2022-10-12T07:01:00,sdl,4.22
2022-10-12T07:02:00,sdl,7.04
2022-10-12T07:03:00,sdl,6.00
2022-10-12T07:04:00,sdl,6.08
2022-10-12T07:05:00,sdl,6.30
2022-10-12T07:06:00,sdl,6.50
2022-10-12T07:07:00,sdl,6.65
2022-10-12T07:08:00,sdl,6.52
2022-10-12T07:09:00,sdl,6.80
2022-10-12T07:10:00,sdl,7.15
2022-10-12T07:11:00,sdl,6.79
2022-10-12T07:12:00,sdl,6.57
2022-10-12T07:13:00,sdl,8.00
2022-10-12T07:14:00,sdl,10.53
2022-10-12T07:15:00,sdl,11.43
2022-10-12T07:16:00,sdl,10.42
2022-10-12T07:17:00,sdl,10.35
2022-10-12T07:18:00,sdl,10.37
2022-10-12T07:19:00,sdl,8.87
2022-10-12T07:20:00,sdl,8.80
2022-10-12T07:21:00,sdl,9.09
2022-10-12T07:22:00,sdl,9.35
2022-10-12T07:23:00,sdl,9.18
2022-10-12T07:24:00,sdl,9.54
2022-10-12T07:25:00,sdl,9.18
2022-10-12T07:26:00,sdl,9.06
2022-10-12T07:27:00,sdl,9.08
2022-10-12T07:28:00,sdl,9.40
2022-10-12T07:29:00,sdl,10.50
2022-10-12T07:30:00,sdl,8.46
2022-10-12T07:31:00,sdl,8.44
2022-10-12T07:32:00,sdl,8.67
2022-10-12T07:33:00,sdl,8.75
2022-10-12T07:34:00,sdl,8.88
2022-10-12T07:35:00,sdl,7.35
2022-10-12T07:36:00,sdl,7.43
2022-10-12T07:37:00,sdl,7.40
2022-10-12T07:38:00,sdl,7.38
2022-10-12T07:39:00,sdl,7.47
2022-10-12T07:40:00,sdl,7.33
2022-10-12T07:41:00,sdl,7.43
2022-10-12T07:42:00,sdl,7.40
2022-10-12T07:43:00,sdl,7.38
2022-10-12T07:44:00,sdl,7.47
2022-10-12T07:45:00,sdl,8.67
2022-10-12T07:46:00,sdl,9.30
2022-10-12T07:47:00,sdl,8.76
2022-10-12T07:48:00,sdl,9.28
2022-10-12T07:49:00,sdl,9.45
2022-10-12T07:50:00,sdl,9.07
2022-10-12T07:51:00,sdl,7.80
2022-10-12T07:52:00,sdl,7.34
2022-10-12T07:53:00,sdl,7.61
2022-10-12T07:54:00,sdl,7.16
2022-10-12T07:55:00,sdl,7.18
2022-10-12T07:56:00,sdl,7.29
2022-10-12T07:57:00,sdl,7.28
2022-10-12T07:58:00,sdl,7.15
2022-10-12T07:59:00,sdl,7.22
2022-10-12T08:00:00,sdl,7.20
2022-10-12T08:01:00,sdl,7.85
2022-10-12T08:02:00,sdl,8.84
2022-10-12T08:03:00,sdl,8.77
2022-10-12T08:04:00,sdl,7.81
2022-10-12T08:05:00,sdl,7.89
2022-10-12T08:06:00,sdl,7.91
2022-10-12T08:07:00,sdl,8.00
2022-10-12T08:08:00,sdl,6.39
2022-10-12T08:09:00,sdl,6.90
2022-10-12T08:10:00,sdl,6.98
2022-10-12T08:11:00,sdl,7.11
2022-10-12T08:12:00,sdl,7.09
2022-10-12T08:13:00,sdl,7.02
2022-10-12T08:14:00,sdl,7.13
2022-10-12T08:15:00,sdl,7.12
2022-10-12T08:16:00,sdl,9.22
2022-10-12T08:17:00,sdl,10.39
2022-10-12T08:18:00,sdl,11.30
2022-10-12T08:19:00,sdl,11.92
2022-10-12T08:20:00,sdl,11.34
2022-10-12T08:21:00,sdl,10.82
2022-10-12T08:22:00,sdl,7.95
2022-10-12T08:23:00,sdl,8.83
2022-10-12T08:24:00,sdl,8.96
2022-10-12T08:25:00,sdl,8.96
2022-10-12T08:26:00,sdl,7.04
2022-10-12T08:27:00,sdl,7.02
2022-10-12T08:28:00,sdl,7.01
2022-10-12T08:29:00,sdl,7.25
2022-10-12T08:30:00,sdl,7.31
2022-10-12T08:31:00,sdl,5.31
2022-10-12T08:32:00,sdl,5.65
2022-10-12T08:33:00,sdl,5.31
2022-10-12T08:34:00,sdl,5.21
2022-10-12T08:35:00,sdl,5.21
2022-10-12T08:36:00,sdl,5.19
2022-10-12T08:37:00,sdl,5.30
2022-10-12T08:38:00,sdl,6.07
2022-10-12T08:39:00,sdl,5.81
2022-10-12T08:40:00,sdl,5.68
2022-10-12T08:41:00,sdl,6.08
2022-10-12T08:42:00,sdl,6.03
2022-10-12T08:43:00,sdl,5.69
2022-10-12T08:44:00,sdl,5.50
2022-10-12T08:45:00,sdl,5.67
2022-10-12T08:46:00,sdl,5.37
2022-10-12T08:47:00,sdl,7.62
2022-10-12T08:48:00,sdl,7.90
2022-10-12T08:49:00,sdl,8.54
2022-10-12T08:50:00,sdl,8.39
2022-10-12T08:51:00,sdl,7.76
2022-10-12T08:52:00,sdl,7.58
2022-10-12T08:53:00,sdl,7.20
2022-10-12T08:54:00,sdl,7.39
2022-10-12T08:55:00,sdl,7.68
2022-10-12T08:56:00,sdl,7.85
2022-10-12T08:57:00,sdl,7.79
2022-10-12T08:58:00,sdl,7.71
2022-10-12T08:59:00,sdl,4.35
2022-10-12T09:00:00,sdl,4.68
2022-10-12T09:01:00,sdl,4.40
2022-10-12T09:02:00,sdl,4.03
2022-10-12T09:03:00,sdl,4.32
2022-10-12T09:04:00,sdl,4.64
2022-10-12T09:05:00,sdl,3.95
2022-10-12T09:06:00,sdl,3.94
2022-10-12T09:07:00,sdl,3.96
2022-10-12T09:08:00,sdl,4.07
2022-10-12T09:09:00,sdl,4.02
2022-10-12T09:10:00,sdl,3.93
2022-10-12T09:11:00,sdl,3.84
2022-10-12T09:12:00,sdl,4.49
2022-10-12T09:13:00,sdl,4.04
2022-10-12T09:14:00,sdl,4.00
2022-10-12T09:15:00,sdl,4.06
2022-10-12T09:16:00,sdl,4.05
2022-10-12T09:17:00,sdl,4.03
2022-10-12T09:18:00,sdl,3.76
2022-10-12T09:19:00,sdl,3.45
2022-10-12T09:20:00,sdl,3.41
2022-10-12T09:21:00,sdl,3.27
2022-10-12T09:22:00,sdl,3.28
2022-10-12T09:23:00,sdl,3.02
2022-10-12T09:24:00,sdl,3.37
2022-10-12T09:25:00,sdl,2.74
2022-10-12T09:26:00,sdl,2.36
2022-10-12T09:27:00,sdl,3.45
2022-10-12T09:28:00,sdl,3.49
2022-10-12T09:29:00,sdl,5.09
2022-10-12T09:30:00,sdl,5.13
2022-10-12T09:31:00,sdl,5.07
2022-10-12T09:32:00,sdl,5.08
2022-10-12T09:33:00,sdl,5.02
2022-10-12T09:34:00,sdl,5.06
2022-10-12T09:35:00,sdl,5.07
2022-10-12T09:36:00,sdl,5.26
2022-10-12T09:37:00,sdl,5.31
2022-10-12T09:38:00,sdl,4.71
2022-10-12T09:39:00,sdl,5.18
2022-10-12T09:40:00,sdl,5.19
2022-10-12T09:41:00,sdl,7.08
2022-10-12T09:42:00,sdl,6.94
2022-10-12T09:43:00,sdl,7.65
2022-10-12T09:44:00,sdl,7.62
2022-10-12T09:45:00,sdl,5.26
2022-10-12T09:46:00,sdl,5.62
2022-10-12T09:47:00,sdl,3.59
2022-10-12T09:48:00,sdl,3.42
2022-10-12T09:49:00,sdl,2.96
2022-10-12T09:50:00,sdl,3.00
2022-10-12T09:51:00,sdl,3.02
2022-10-12T09:52:00,sdl,2.90
2022-10-12T09:53:00,sdl,1.87
2022-10-12T09:54:00,sdl,3.06
2022-10-12T09:55:00,sdl,3.31
2022-10-12T09:56:00,sdl,3.33
2022-10-12T09:57:00,sdl,3.35
2022-10-12T09:58:00,sdl,4.76
2022-10-12T09:59:00,sdl,4.75
2022-10-12T10:00:00,sdl,4.75
2022-10-12T10:01:00,sdl,4.69
2022-10-12T10:02:00,sdl,4.66
2022-10-12T10:03:00,sdl,4.68
2022-10-12T10:04:00,sdl,4.52
2022-10-12T10:05:00,sdl,5.17
2022-10-12T10:06:00,sdl,4.86
2022-10-12T10:07:00,sdl,4.48
2022-10-12T10:08:00,sdl,4.46
2022-10-12T10:09:00,sdl,4.09
2022-10-12T10:10:00,sdl,4.23
2022-10-12T10:11:00,sdl,6.67
2022-10-12T10:12:00,sdl,7.07
2022-10-12T10:13:00,sdl,8.30
2022-10-12T10:14:00,sdl,10.38
2022-10-12T10:15:00,sdl,9.43
2022-10-12T10:16:00,sdl,9.79
2022-10-12T10:17:00,sdl,8.94
2022-10-12T10:18:00,sdl,8.94
2022-10-12T10:19:00,sdl,8.10
2022-10-12T10:20:00,sdl,6.79
2022-10-12T10:21:00,sdl,4.46
2022-10-12T10:22:00,sdl,4.60
2022-10-12T10:23:00,sdl,3.80
2022-10-12T10:24:00,sdl,3.75
2022-10-12T10:25:00,sdl,3.92
2022-10-12T10:26:00,sdl,5.47
2022-10-12T10:27:00,sdl,6.24
2022-10-12T10:28:00,sdl,6.01
2022-10-12T10:29:00,sdl,9.69
2022-10-12T10:30:00,sdl,6.01
2022-10-12T10:31:00,sdl,5.83
2022-10-12T10:32:00,sdl,6.53
2022-10-12T10:33:00,sdl,6.30
2022-10-12T10:34:00,sdl,6.72
2022-10-12T10:35:00,sdl,6.89
2022-10-12T10:36:00,sdl,6.93
2022-10-12T10:37:00,sdl,7.96
2022-10-12T10:38:00,sdl,7.95
2022-10-12T10:39:00,sdl,7.83
2022-10-12T10:40:00,sdl,7.80
2022-10-12T10:41:00,sdl,7.65
2022-10-12T10:42:00,sdl,7.75
2022-10-12T10:43:00,sdl,7.84
2022-10-12T10:44:00,sdl,8.03
2022-10-12T10:45:00,sdl,8.42
2022-10-12T10:46:00,sdl,8.89
2022-10-12T10:47:00,sdl,8.39
2022-10-12T10:48:00,sdl,9.67
2022-10-12T10:49:00,sdl,9.95
2022-10-12T10:50:00,sdl,10.09
2022-10-12T10:51:00,sdl,9.55
2022-10-12T10:52:00,sdl,9.47
2022-10-12T10:53:00,sdl,7.32
2022-10-12T10:54:00,sdl,7.50
2022-10-12T10:55:00,sdl,6.47
2022-10-12T10:56:00,sdl,6.13
2022-10-12T10:57:00,sdl,4.04
2022-10-12T10:58:00,sdl,5.44
2022-10-12T10:59:00,sdl,5.82
2022-10-12T11:00:00,sdl,7.65
2022-10-12T11:01:00,sdl,7.38
2022-10-12T11:02:00,sdl,7.46
2022-10-12T11:03:00,sdl,7.55
2022-10-12T11:04:00,sdl,7.54
2022-10-12T11:05:00,sdl,5.48
2022-10-12T11:06:00,sdl,4.11
2022-10-12T11:07:00,sdl,3.70
2022-10-12T11:08:00,sdl,3.64
2022-10-12T11:09:00,sdl,4.63
2022-10-12T11:10:00,sdl,4.96
2022-10-12T11:11:00,sdl,4.49
2022-10-12T11:12:00,sdl,5.01
2022-10-12T11:13:00,sdl,5.04
2022-10-12T11:14:00,sdl,4.90
2022-10-12T11:15:00,sdl,5.32
2022-10-12T11:16:00,sdl,5.42
2022-10-12T11:17:00,sdl,5.54
2022-10-12T11:18:00,sdl,5.10
2022-10-12T11:19:00,sdl,5.19
2022-10-12T11:20:00,sdl,5.09
2022-10-12T11:21:00,sdl,5.20
2022-10-12T11:22:00,sdl,5.03
2022-10-12T11:23:00,sdl,5.05
2022-10-12T11:24:00,sdl,6.25
2022-10-12T11:25:00,sdl,5.20
2022-10-12T11:26:00,sdl,5.22
2022-10-12T11:27:00,sdl,5.38
2022-10-12T11:28:00,sdl,5.38
2022-10-12T11:29:00,sdl,5.57
2022-10-12T11:30:00,sdl,5.11
2022-10-12T11:31:00,sdl,5.55
2022-10-12T11:32:00,sdl,7.59
2022-10-12T11:33:00,sdl,7.57
2022-10-12T11:34:00,sdl,7.48
2022-10-12T11:35:00,sdl,7.50
2022-10-12T11:36:00,sdl,7.54
2022-10-12T11:37:00,sdl,8.23
2022-10-12T11:38:00,sdl,7.85
2022-10-12T11:39:00,sdl,8.56
2022-10-12T11:40:00,sdl,9.00
2022-10-12T11:41:00,sdl,8.95
2022-10-12T11:42:00,sdl,8.71
2022-10-12T11:43:00,sdl,8.69
2022-10-12T11:44:00,sdl,8.69
2022-10-12T11:45:00,sdl,8.76
2022-10-12T11:46:00,sdl,9.08
2022-10-12T11:47:00,sdl,9.42
2022-10-12T11:48:00,sdl,14.59
2022-10-12T11:49:00,sdl,9.60
2022-10-12T11:50:00,sdl,9.24
2022-10-12T11:51:00,sdl,8.85
2022-10-12T11:52:00,sdl,13.13
2022-10-12T11:53:00,sdl,15.58
2022-10-12T11:54:00,sdl,17.04
2022-10-12T11:55:00,sdl,16.87
2022-10-12T11:56:00,sdl,17.56
2022-10-12T11:57:00,sdl,17.29
2022-10-12T11:58:00,sdl,15.47
2022-10-12T11:59:00,sdl,15.38
2022-10-12T12:00:00,sdl,15.63
2022-10-12T12:01:00,sdl,16.00
2022-10-12T12:02:00,sdl,15.39
2022-10-12T12:03:00,sdl,17.65
2022-10-12T12:04:00,sdl,17.47
2022-10-12T12:05:00,sdl,18.17
2022-10-12T12:06:00,sdl,18.71
2022-10-12T12:07:00,sdl,22.28
2022-10-12T12:08:00,sdl,22.49
2022-10-12T12:09:00,sdl,22.80
2022-10-12T12:10:00,sdl,20.45
2022-10-12T12:11:00,sdl,20.16
2022-10-12T12:12:00,sdl,20.00
2022-10-12T12:13:00,sdl,20.14
2022-10-12T12:14:00,sdl,19.89
2022-10-12T12:15:00,sdl,19.93
2022-10-12T12:16:00,sdl,20.62
2022-10-12T12:17:00,sdl,18.37
2022-10-12T12:18:00,sdl,20.45
2022-10-12T12:19:00,sdl,20.60
2022-10-12T12:20:00,sdl,21.87
2022-10-12T12:21:00,sdl,22.07
2022-10-12T12:22:00,sdl,14.65
2022-10-12T12:23:00,sdl,15.16
2022-10-12T12:24:00,sdl,14.93
2022-10-12T12:25:00,sdl,13.91
2022-10-12T12:26:00,sdl,13.57
2022-10-12T12:27:00,sdl,13.96
2022-10-12T12:28:00,sdl,13.76
2022-10-12T12:29:00,sdl,10.26
2022-10-12T12:30:00,sdl,10.18
2022-10-12T12:31:00,sdl,10.44
2022-10-12T12:32:00,sdl,10.32
2022-10-12T12:33:00,sdl,11.61
2022-10-12T12:34:00,sdl,11.38
2022-10-12T12:35:00,sdl,11.33
2022-10-12T12:36:00,sdl,11.62
2022-10-12T12:37:00,sdl,12.26
2022-10-12T12:38:00,sdl,12.17
2022-10-12T12:39:00,sdl,12.29
2022-10-12T12:40:00,sdl,12.44
2022-10-12T12:41:00,sdl,12.41
2022-10-12T12:42:00,sdl,12.45
2022-10-12T12:43:00,sdl,11.64
2022-10-12T12:44:00,sdl,11.54
2022-10-12T12:45:00,sdl,13.54
2022-10-12T12:46:00,sdl,13.56
2022-10-12T12:47:00,sdl,13.94
2022-10-12T12:48:00,sdl,14.06
2022-10-12T12:49:00,sdl,13.62
2022-10-12T12:50:00,sdl,13.69
2022-10-12T12:51:00,sdl,13.63
2022-10-12T12:52:00,sdl,13.78
2022-10-12T12:53:00,sdl,13.94
2022-10-12T12:54:00,sdl,13.31
2022-10-12T12:55:00,sdl,13.29
2022-10-12T12:56:00,sdl,13.38
2022-10-12T12:57:00,sdl,13.27
2022-10-12T12:58:00,sdl,13.61
2022-10-12T12:59:00,sdl,13.58
2022-10-12T13:00:00,sdl,13.58
2022-10-12T13:01:00,sdl,11.84
2022-10-12T13:02:00,sdl,11.99
2022-10-12T13:03:00,sdl,11.89
2022-10-12T13:04:00,sdl,9.72
2022-10-12T13:05:00,sdl,10.20
2022-10-12T13:06:00,sdl,10.50
2022-10-12T13:07:00,sdl,10.77
2022-10-12T13:08:00,sdl,10.83
2022-10-12T13:09:00,sdl,15.96
2022-10-12T13:10:00,sdl,16.36
2022-10-12T13:11:00,sdl,15.66
2022-10-12T13:12:00,sdl,15.80
2022-10-12T13:13:00,sdl,11.19
2022-10-12T13:14:00,sdl,11.27
2022-10-12T13:15:00,sdl,9.54
2022-10-12T13:16:00,sdl,11.96
2022-10-12T13:17:00,sdl,9.71
2022-10-12T13:18:00,sdl,9.70
2022-10-12T13:19:00,sdl,9.71
2022-10-12T13:20:00,sdl,9.39
2022-10-12T13:21:00,sdl,11.39
2022-10-12T13:22:00,sdl,11.54
2022-10-12T13:23:00,sdl,12.79
2022-10-12T13:24:00,sdl,12.43
2022-10-12T13:25:00,sdl,11.58
2022-10-12T13:26:00,sdl,11.69
2022-10-12T13:27:00,sdl,11.53
2022-10-12T13:28:00,sdl,11.57
2022-10-12T13:29:00,sdl,12.10
2022-10-12T13:30:00,sdl,11.36
2022-10-12T13:31:00,sdl,11.48
2022-10-12T13:32:00,sdl,11.44
2022-10-12T13:33:00,sdl,9.25
2022-10-12T13:34:00,sdl,9.25
2022-10-12T13:35:00,sdl,8.84
2022-10-12T13:36:00,sdl,9.01
2022-10-12T13:37:00,sdl,9.64
2022-10-12T13:38:00,sdl,9.62
2022-10-12T13:39:00,sdl,9.23
2022-10-12T13:40:00,sdl,10.30
2022-10-12T13:41:00,sdl,9.36